Metropolis, IL

6:24 PM CDT on May 21, 2018 (GMT -0500)
Metropolis

Weather History for KM30 - October, 2014

Change the Weather History Date:

Saturday, October 4, 2014

  Actual Average (KPAH) Record (KPAH)
Temperature  
Mean Temperature 48 °F -  
Max Temperature 58 °F 75 °F 90 °F (2006)
Min Temperature 37 °F 51 °F 30 °F (1987)
Degree Days  
Heating Degree Days 18    
Moisture  
Dew Point 37 °F    
Average Humidity 70    
Maximum Humidity 100    
Minimum Humidity 35    
Precipitation  
Precipitation 0.00 in - - ()
Sea Level Pressure  
Sea Level Pressure 29.98 in    
Wind  
Wind Speed 6 mph (WSW)    
Max Wind Speed 15 mph    
Max Gust Speed 24 mph    
Visibility 10 miles    
Events      
Averages and records for this station are not official NWS values.
T = Trace of Precipitation, MM = Missing Value Source: NWS Daily Summary

Daily Weather History Graph

Daily Weather History Graph

Search for Another Location

Airport or City:

Astronomy

Oct. 04, 2014 Rise Set
Actual Time 6:53 AM CDT 6:33 PM CDT
Civil Twilight 6:27 AM CDT 6:59 PM CDT
Nautical Twilight 5:56 AM CDT 7:29 PM CDT
Astronomical Twilight 5:26 AM CDT 8:00 PM CDT
Moon 4:05 PM CDT (10/4) 2:26 AM CDT (10/4)
Length of Visible Light 12h 32m
Length of Day
11h 40m
Waxing Gibbous, 81% of the Moon is Illuminated
Oct 4
Waxing Gibbous
Oct 8
Full
Oct 15
Last Quarter
Oct 23
New
Oct 30
First Quarter

Hourly Weather History & Observations

Time (CDT) Temp. Windchill Dew Point Humidity Pressure Visibility Wind Dir Wind Speed Gust Speed Precip Events Conditions
12:15 AM 47.3 °F - 41.0 °F 79% 30.06 in 10.0 mi SW 3.5 mph - N/A   Clear
12:35 AM 46.6 °F - 41.0 °F 81% 30.05 in 10.0 mi SW 5.8 mph - N/A   Clear
12:55 AM 46.4 °F 44.3 °F 41.2 °F 82% 30.04 in 10.0 mi WSW 4.6 mph - N/A   Clear
1:15 AM 46.0 °F 43.9 °F 41.2 °F 83% 30.04 in 10.0 mi WSW 4.6 mph - N/A   Clear
1:35 AM 46.4 °F 44.3 °F 41.2 °F 82% 30.04 in 10.0 mi WSW 4.6 mph - N/A   Clear
1:55 AM 46.6 °F - 41.0 °F 81% 30.04 in 10.0 mi WSW 5.8 mph - N/A   Clear
2:15 AM 46.4 °F 44.3 °F 41.4 °F 83% 30.04 in 10.0 mi WSW 4.6 mph - N/A   Scattered Clouds
2:35 AM 46.0 °F 43.9 °F 41.9 °F 85% 30.03 in 10.0 mi WSW 4.6 mph - N/A   Scattered Clouds
2:55 AM 45.9 °F 42.9 °F 41.9 °F 86% 30.03 in 10.0 mi WSW 5.8 mph - N/A   Scattered Clouds
3:15 AM 45.5 °F 41.8 °F 41.9 °F 87% 30.01 in 10.0 mi SW 6.9 mph - N/A   Clear
3:35 AM 45.5 °F 41.8 °F 42.1 °F 88% 30.01 in 10.0 mi WSW 6.9 mph - N/A   Clear
3:55 AM 44.6 °F 41.4 °F 41.9 °F 90% 30.01 in 10.0 mi SW 5.8 mph - N/A   Clear
4:15 AM 44.8 °F 41.6 °F 42.1 °F 90% 30.01 in 10.0 mi SW 5.8 mph - N/A   Clear
4:35 AM 44.6 °F 43.1 °F 42.4 °F 92% 30.01 in 10.0 mi WSW 3.5 mph - N/A   Scattered Clouds
4:55 AM 44.2 °F 41.8 °F 42.8 °F 95% 30.00 in 10.0 mi SW 4.6 mph - N/A   Scattered Clouds
5:15 AM 44.1 °F 41.5 °F 42.4 °F 94% 30.00 in 10.0 mi SW 4.6 mph - N/A   Scattered Clouds
5:35 AM 43.9 °F 40.5 °F 42.3 °F 94% 29.99 in 10.0 mi WSW 5.8 mph - N/A   Clear
5:55 AM 43.9 °F 41.3 °F 42.1 °F 93% 30.00 in 10.0 mi WSW 4.6 mph - N/A   Clear
6:15 AM 43.7 °F 40.3 °F 41.9 °F 93% 29.99 in 10.0 mi WSW 5.8 mph - N/A   Clear
6:35 AM 43.3 °F 39.9 °F 41.7 °F 94% 29.99 in 10.0 mi WSW 5.8 mph - N/A   Clear
6:55 AM 43.2 °F 39.7 °F 41.4 °F 93% 29.99 in 10.0 mi WSW 5.8 mph - N/A   Clear
7:15 AM 43.2 °F 39.0 °F 41.4 °F 93% 29.99 in 10.0 mi WSW 6.9 mph - N/A   Clear
7:35 AM 43.7 °F 39.7 °F 41.7 °F 93% 29.99 in 10.0 mi WSW 6.9 mph - N/A   Clear
7:55 AM 44.6 °F 40.2 °F 41.5 °F 89% 29.99 in 10.0 mi WSW 8.1 mph - N/A   Clear
8:15 AM 45.9 °F 41.2 °F 41.9 °F 86% 29.99 in 10.0 mi WSW 9.2 mph - N/A   Clear
8:35 AM 46.6 °F - 41.5 °F 83% 29.99 in 10.0 mi WSW 6.9 mph - N/A   Clear
8:55 AM 48.0 °F - 41.5 °F 78% 29.99 in 10.0 mi WSW 11.5 mph - N/A   Clear
9:15 AM 49.1 °F - 41.5 °F 75% 29.99 in 10.0 mi WSW 11.5 mph - N/A   Clear
9:35 AM 50.9 °F - 41.4 °F 70% 29.99 in 10.0 mi West 9.2 mph 19.6 mph N/A   Clear
9:55 AM 51.6 °F - 37.6 °F 59% 29.99 in 10.0 mi West 15.0 mph 23.0 mph N/A   Clear
10:15 AM 52.3 °F - 35.8 °F 53% 29.99 in 10.0 mi West 15.0 mph 19.6 mph N/A   Clear
10:35 AM 54.0 °F - 34.5 °F 48% 29.99 in 10.0 mi West 13.8 mph 20.7 mph N/A   Clear
10:55 AM 53.4 °F - 33.1 °F 46% 29.99 in 10.0 mi NW 15.0 mph 21.9 mph N/A   Clear
11:15 AM 52.7 °F - 34.5 °F 50% 29.99 in 10.0 mi West 11.5 mph 20.7 mph N/A   Scattered Clouds
11:35 AM 52.5 °F - 35.4 °F 52% 29.98 in 10.0 mi WNW 12.7 mph 20.7 mph N/A   Scattered Clouds
11:55 AM 52.7 °F - 34.3 °F 50% 29.99 in 10.0 mi West 15.0 mph 19.6 mph N/A   Scattered Clouds
12:15 PM 53.4 °F - 35.4 °F 51% 29.98 in 10.0 mi West 12.7 mph 18.4 mph N/A   Scattered Clouds
12:35 PM 54.3 °F - 35.4 °F 49% 29.98 in 10.0 mi WSW 11.5 mph 18.4 mph N/A   Scattered Clouds
12:55 PM 54.9 °F - 33.3 °F 44% 29.98 in 10.0 mi West 13.8 mph 24.2 mph N/A   Scattered Clouds
1:15 PM 55.0 °F - 34.0 °F 45% 29.97 in 10.0 mi West 9.2 mph - N/A   Scattered Clouds
1:55 PM 56.7 °F - 32.0 °F 39% 29.96 in 10.0 mi West 15.0 mph 24.2 mph N/A   Clear
2:15 PM 57.4 °F - 32.0 °F 38% 29.96 in 10.0 mi West 15.0 mph - N/A   Clear
2:35 PM 57.2 °F - 30.7 °F 37% 29.96 in 10.0 mi WNW 12.7 mph 18.4 mph N/A   Clear
2:55 PM 57.4 °F - 30.6 °F 36% 29.96 in 10.0 mi West 9.2 mph - N/A   Clear
3:15 PM 56.7 °F - 30.7 °F 37% 29.96 in 10.0 mi West 9.2 mph 17.3 mph N/A   Clear
3:35 PM 57.2 °F - 29.8 °F 35% 29.96 in 10.0 mi WNW 11.5 mph 18.4 mph N/A   Clear
3:55 PM 57.4 °F - 30.4 °F 36% 29.95 in 10.0 mi West 10.4 mph 17.3 mph N/A   Clear
4:15 PM 57.9 °F - 30.4 °F 35% 29.95 in 10.0 mi West 12.7 mph 18.4 mph N/A   Clear
4:35 PM 58.1 °F - 31.1 °F 36% 29.95 in 10.0 mi WNW 9.2 mph - N/A   Clear
4:55 PM 57.9 °F - 30.6 °F 35% 29.95 in 10.0 mi West 13.8 mph 20.7 mph N/A   Clear
5:15 PM 57.0 °F - 30.2 °F 36% 29.95 in 10.0 mi West 6.9 mph - N/A   Clear
5:35 PM 56.7 °F - 30.6 °F 37% 29.95 in 10.0 mi West 8.1 mph - N/A   Clear
5:55 PM 55.6 °F - 30.9 °F 39% 29.95 in 10.0 mi West 6.9 mph - N/A   Clear
6:15 PM 54.5 °F - 31.5 °F 42% 29.95 in 10.0 mi West 5.8 mph - N/A   Clear
6:35 PM 53.1 °F - 30.9 °F 43% 29.95 in 10.0 mi WNW 4.6 mph - N/A   Clear
6:55 PM 51.3 °F - 32.0 °F 48% 29.95 in 10.0 mi West 3.5 mph - N/A   Clear
7:15 PM 47.7 °F - 35.4 °F 63% 29.95 in 10.0 mi Calm Calm - N/A   Clear
7:35 PM 44.4 °F - 37.2 °F 76% 29.95 in 10.0 mi Calm Calm - N/A   Clear
7:55 PM 42.6 °F - 38.5 °F 85% 29.96 in 10.0 mi Calm Calm - N/A   Clear
8:15 PM 42.3 °F - 38.5 °F 86% 29.95 in 10.0 mi Calm Calm - N/A   Clear
8:55 PM 41.0 °F - 38.7 °F 91% 29.96 in 10.0 mi Calm Calm - N/A   Clear
9:15 PM 40.5 °F - 38.8 °F 94% 29.96 in 10.0 mi Calm Calm - N/A   Clear
9:35 PM 39.4 °F - 38.8 °F 98% 29.96 in 10.0 mi Calm Calm - N/A   Clear
9:55 PM 39.2 °F - 39.2 °F 100% 29.96 in 10.0 mi Calm Calm - N/A   Clear
10:15 PM 38.5 °F - 38.5 °F 100% 29.95 in 10.0 mi Calm Calm - N/A   Clear
10:35 PM 38.3 °F - 38.3 °F 100% 29.96 in 10.0 mi Calm Calm - N/A   Clear
10:50 PM 37.8 °F - 37.8 °F 100% 29.96 in 10.0 mi Calm Calm - N/A   Clear
11:15 PM 37.4 °F - 37.4 °F 100% 29.95 in 10.0 mi Calm Calm - N/A   Clear
11:35 PM 37.2 °F - 37.2 °F 100% 29.95 in 10.0 mi Calm Calm - N/A   Clear
11:55 PM 37.4 °F - 37.4 °F 100% 29.94 in 10.0 mi Calm Calm - N/A   Clear